Erie, PA

1:36 PM EDT on October 18, 2017 (GMT -0400)
Erie International

Weather History for KERI - April, 2013

Change the Weather History Date:

Tuesday, April 9, 2013

  Actual Average Record
Temperature  
Mean Temperature 50 °F 45 °F  
Max Temperature 58 °F 54 °F 79 °F (1969)
Min Temperature 42 °F 36 °F 17 °F (1958)
Degree Days  
Heating Degree Days 15 20  
Month to date heating degree days 216 198  
Since 1 July heating degree days 5305 5474  
Cooling Degree Days 0 0  
Month to date cooling degree days 0 0  
Year to date cooling degree days 0 1  
Moisture  
Dew Point 41 °F    
Average Humidity 73    
Maximum Humidity 89    
Minimum Humidity 57    
Precipitation  
Precipitation 0.02 in 0.12 in 1.20 in (1998)
Month to date precipitation 0.08 1.04  
Year to date precipitation 9.19 9.33  
Snow  
Snow 0.00 in 0.10 in - ()
Month to date snowfall T 1.8  
Since 1 July snowfall 104.5 99.5  
Snow Depth 0.00 in    
Sea Level Pressure  
Sea Level Pressure 30.01 in    
Wind  
Wind Speed 8 mph (North)    
Max Wind Speed 24 mph    
Max Gust Speed 36 mph    
Visibility 9 miles    
Events Rain    
T = Trace of Precipitation, MM = Missing Value Source: NWS Daily Summary

Daily Weather History Graph

Daily Weather History Graph

Search for Another Location

Airport or City:

Trip Planner

Search our weather history database for the weather conditions in past years. The results will help you decide how hot, cold, wet, or windy it might be!

Date:

Astronomy

Apr. 09, 2013 Rise Set
Actual Time 6:49 AM EDT 7:55 PM EDT
Civil Twilight 6:20 AM EDT 8:24 PM EDT
Nautical Twilight 5:46 AM EDT 8:58 PM EDT
Astronomical Twilight 5:10 AM EDT 9:34 PM EDT
Moon 6:11 AM EDT (4/9) 7:29 PM EDT (4/9)
Length of Visible Light 14h 03m
Length of Day
13h 06m
Waning Crescent, 1% of the Moon is Illuminated
Apr 9
Waning Crescent
Apr 10
New
Apr 18
First Quarter
Apr 25
Full
May 2
Last Quarter

Hourly Weather History & Observations

Time (EDT) Temp. Windchill Dew Point Humidity Pressure Visibility Wind Dir Wind Speed Gust Speed Precip Events Conditions
12:51 AM 57.2 °F - 44.6 °F 63% 29.92 in 10.0 mi West 19.6 mph 32.2 mph N/A   Overcast
1:51 AM 50.0 °F - 42.1 °F 74% 29.98 in 9.0 mi WSW 17.3 mph 32.2 mph N/A   Partly Cloudy
2:21 AM 50.0 °F - 42.8 °F 76% 29.99 in 8.0 mi West 13.8 mph 19.6 mph N/A   Mostly Cloudy
2:51 AM 48.2 °F - 42.8 °F 82% 30.00 in 8.0 mi WSW 10.4 mph 20.7 mph N/A   Overcast
3:20 AM 48.2 °F - 42.8 °F 82% 30.01 in 7.0 mi West 10.4 mph - N/A   Overcast
3:51 AM 46.9 °F - 42.1 °F 83% 30.03 in 7.0 mi West 11.5 mph 19.6 mph N/A   Overcast
4:40 AM 44.6 °F 38.8 °F 41.0 °F 87% 30.06 in 6.0 mi West 11.5 mph - N/A   Overcast
4:51 AM 44.1 °F 39.0 °F 39.9 °F 85% 30.07 in 7.0 mi West 9.2 mph 18.4 mph N/A   Overcast
5:51 AM 43.0 °F 40.3 °F 39.0 °F 86% 30.08 in 7.0 mi West 4.6 mph - N/A   Overcast
6:51 AM 42.1 °F 40.2 °F 39.0 °F 89% 30.12 in 8.0 mi West 3.5 mph - N/A   Overcast
7:51 AM 43.0 °F 38.8 °F 39.0 °F 86% 30.14 in 7.0 mi West 6.9 mph - N/A   Overcast
8:51 AM 43.0 °F - 39.0 °F 86% 30.13 in 10.0 mi Calm Calm - N/A   Overcast
9:38 AM 42.8 °F 41.1 °F 39.2 °F 87% 30.12 in 10.0 mi SSE 3.5 mph - N/A   Overcast
9:51 AM 45.0 °F 42.6 °F 39.9 °F 82% 30.13 in 10.0 mi SSE 4.6 mph - N/A   Overcast
10:17 AM 46.4 °F 43.5 °F 39.2 °F 76% 30.11 in 10.0 mi SE 5.8 mph - N/A   Scattered Clouds
10:51 AM 51.1 °F - 41.0 °F 68% 30.09 in 10.0 mi SE 4.6 mph - N/A   Clear
11:51 AM 46.0 °F 42.5 °F 39.9 °F 79% 30.09 in 10.0 mi NNW 6.9 mph - N/A   Clear
12:51 PM 50.0 °F - 39.9 °F 68% 30.06 in 10.0 mi NNW 8.1 mph - N/A   Clear
1:51 PM 52.0 °F - 41.0 °F 66% 30.05 in 10.0 mi North 5.8 mph - N/A   Clear
2:51 PM 51.8 °F - 39.2 °F 62% 30.02 in 10.0 mi NNE 6.9 mph - N/A   Mostly Cloudy
3:51 PM 53.1 °F - 41.0 °F 64% 29.99 in 10.0 mi NE 6.9 mph - N/A   Overcast
4:51 PM 57.0 °F - 43.0 °F 59% 29.94 in 10.0 mi NE 6.9 mph - N/A   Mostly Cloudy
5:51 PM 55.0 °F - 42.1 °F 62% 29.92 in 10.0 mi NE 5.8 mph - N/A   Clear
6:51 PM 48.9 °F - 39.9 °F 71% 29.91 in 10.0 mi ENE 10.4 mph - N/A   Partly Cloudy
7:51 PM 48.9 °F - 39.9 °F 71% 29.91 in 10.0 mi NE 19.6 mph 29.9 mph N/A   Overcast
8:51 PM 52.0 °F - 43.0 °F 71% 29.86 in 10.0 mi NE 6.9 mph - 0.00 in   Overcast
9:22 PM 42.8 °F 34.3 °F 39.2 °F 87% 29.93 in 5.0 mi NNE 19.6 mph 29.9 mph 0.01 in Rain Light Rain
9:51 PM 46.9 °F - 44.1 °F 90% 29.94 in 6.0 mi ENE 19.6 mph 25.3 mph 0.01 in Rain Light Rain
9:58 PM 46.4 °F 38.7 °F 44.6 °F 93% 29.93 in 8.0 mi ENE 20.7 mph - 0.00 in Rain Light Rain
10:51 PM 48.9 °F - 46.0 °F 90% 29.93 in 10.0 mi East 9.2 mph - 0.00 in Rain Light Rain
11:51 PM 51.1 °F - 46.9 °F 86% 29.92 in 10.0 mi Calm Calm - 0.01 in Rain Light Rain